Weather History for Tri-Cities, TN

Change the Weather History Date:

Wednesday, July 30, 2014

  Actual Average Record
Temperature  
Mean Temperature 65 °F 74 °F  
Max Temperature 78 °F 85 °F 96 °F (1995)
Min Temperature 51 °F 64 °F 51 °F (2014)
Degree Days  
Heating Degree Days 0 0  
Month to date heating degree days 0 0  
Since 1 June heating degree days 0 11  
Since 1 July heating degree days 0 0  
Cooling Degree Days 0 10  
Month to date cooling degree days 254 297  
Year to date cooling degree days 684 576  
Since 1 June cooling degree days 550 503  
Growing Degree Days 14 (Base 50)    
Moisture  
Dew Point 51 °F    
Average Humidity 66    
Maximum Humidity 93    
Minimum Humidity 39    
Precipitation  
Precipitation 0.00 in 0.15 in 1.30 in (1997)
Month to date precipitation 5.25 4.54  
Year to date precipitation 20.83 25.83  
Snow  
Snow 0.00 in 0.00 in - ()
Month to date snowfall 0.0 0.0  
Since 1 June snowfall 0.0 0.0  
Since 1 July snowfall 0.0 0.0  
Snow Depth 0.00 in    
Sea Level Pressure  
Sea Level Pressure 30.09 in    
Wind  
Wind Speed 1 mph (North)    
Max Wind Speed 8 mph    
Max Gust Speed 12 mph    
Visibility 6 miles    
Events Fog    
T = Trace of Precipitation, MM = Missing Value Source: NWS Daily Summary

Daily Weather History Graph

Daily Weather History Graph

Search for Another Location

Airport:

Trip Planner

Search our weather history database for the weather conditions in past years. The results will help you decide how hot, cold, wet, or windy it might be!

Date:

Astronomy

Jul. 30, 2014 Rise Set
Actual Time 6:34 AM EDT 8:37 PM EDT
Civil Twilight 6:05 AM EDT 9:05 PM EDT
Nautical Twilight 5:30 AM EDT 9:40 PM EDT
Astronomical Twilight 4:53 AM EDT 10:18 PM EDT
Moon 9:57 AM EDT (7/30) 10:27 PM EDT (7/30)
Length of Visible Light 15h 00m
Length of Day
14h 02m
Waxing Crescent, 12% of the Moon is Illuminated
Jul 30
Waxing Crescent
Aug 3
First Quarter
Aug 10
Full
Aug 17
Last Quarter
Aug 25
New

Hourly Weather History & Observations

Time (EDT) Temp. Dew Point Humidity Pressure Visibility Wind Dir Wind Speed Gust Speed Precip Events Conditions
12:53 AM 55.0 °F 50.0 °F 83% 30.05 in 10.0 mi Calm Calm - N/A   Scattered Clouds
1:53 AM 53.6 °F 50.0 °F 88% 30.11 in 10.0 mi Calm Calm - N/A   Scattered Clouds
2:53 AM 53.1 °F 50.0 °F 89% 30.05 in 10.0 mi Calm Calm - N/A   Clear
3:53 AM 52.0 °F 48.9 °F 89% 30.06 in 8.0 mi Calm Calm - N/A   Clear
4:53 AM 51.1 °F 48.0 °F 89% 30.06 in 5.0 mi Calm Calm - N/A   Partly Cloudy
5:05 AM 52.0 °F 48.9 °F 89% 30.12 in 4.0 mi Calm Calm - N/A   Mostly Cloudy
5:13 AM 53.1 °F 51.1 °F 93% 30.12 in 1.5 mi Calm Calm - N/A   Mostly Cloudy
5:16 AM 53.1 °F 51.1 °F 93% 30.12 in 1.0 mi Calm Calm - N/A   Mist
5:27 AM 53.1 °F 51.1 °F 93% 30.12 in 0.5 mi North 3.5 mph - N/A Fog Fog
5:35 AM 53.1 °F 51.1 °F 93% 30.12 in 0.2 mi Calm Calm - N/A Fog Fog
5:46 AM 54.0 °F 52.0 °F 93% 30.12 in 0.2 mi Calm Calm - N/A Fog Fog
5:53 AM 54.0 °F 52.0 °F 93% 30.07 in 0.2 mi Calm Calm - N/A Fog Fog
6:21 AM 53.1 °F 51.1 °F 93% 30.13 in 0.2 mi Calm Calm - N/A Fog Fog
6:50 AM 53.6 °F 51.8 °F 94% 30.14 in 0.1 mi Calm Calm - N/A Fog Fog
6:53 AM 53.1 °F 51.1 °F 93% 30.08 in 0.1 mi Calm Calm - N/A Fog Fog
7:24 AM 52.0 °F 50.0 °F 93% 30.14 in 3.0 mi Calm Calm - N/A   Scattered Clouds
7:53 AM 53.6 °F 51.8 °F 94% 30.15 in 5.0 mi Calm Calm - N/A   Partly Cloudy
8:53 AM 59.0 °F 53.1 °F 81% 30.10 in 10.0 mi Calm Calm - N/A   Clear
9:53 AM 63.0 °F 54.0 °F 72% 30.10 in 10.0 mi Calm Calm - N/A   Clear
10:53 AM 66.0 °F 53.1 °F 63% 30.10 in 10.0 mi Calm Calm - N/A   Clear
11:53 AM 70.0 °F 51.1 °F 51% 30.09 in 10.0 mi Calm Calm - N/A   Partly Cloudy
12:53 PM 71.6 °F 48.2 °F 43% 30.14 in 10.0 mi Calm Calm - N/A   Partly Cloudy
1:53 PM 75.0 °F 52.0 °F 44% 30.07 in 10.0 mi North 3.5 mph - N/A   Scattered Clouds
2:53 PM 77.0 °F 52.0 °F 42% 30.06 in 10.0 mi Variable 3.5 mph - N/A   Scattered Clouds
3:53 PM 77.0 °F 51.1 °F 40% 30.05 in 10.0 mi Variable 3.5 mph - N/A   Scattered Clouds
4:53 PM 78.1 °F 51.1 °F 39% 30.04 in 10.0 mi East 3.5 mph - N/A   Scattered Clouds
5:53 PM 78.1 °F 51.1 °F 39% 30.04 in 10.0 mi NNW 4.6 mph - N/A   Scattered Clouds
6:53 PM 77.0 °F 51.1 °F 40% 30.04 in 10.0 mi North 3.5 mph - N/A   Scattered Clouds
7:53 PM 73.9 °F 52.0 °F 46% 30.04 in 10.0 mi WNW 5.8 mph - N/A   Mostly Cloudy
8:53 PM 66.9 °F 55.9 °F 68% 30.05 in 10.0 mi North 3.5 mph - N/A   Mostly Cloudy
9:53 PM 63.0 °F 55.9 °F 78% 30.06 in 10.0 mi North 3.5 mph - N/A   Mostly Cloudy
10:53 PM 60.8 °F 55.4 °F 82% 30.14 in 10.0 mi Calm Calm - N/A   Mostly Cloudy